sat.trackr.live / text

‹ back to catalog

STARLINK-32351

NORAD 61529 · 2024-183W

PAYLOAD ACTIVE UNKNOWN

§ Identity

Operator
Country
US
Launch date
2024-10-15
Launch site
AFETR
Launch vehicle
Mass (kg)
RCS (m²)

Purposes: comms

External: N2YO · Heavens-Above · Gunter

§ Orbital elements

Epoch: 2026-09-21T09:17:33.978912Z

Period
93.85 min
Inclination
53.1604°
Eccentricity
0.0001358
Mean motion
15.34393568 rev/d
Perigee alt
461.8 km
Apogee alt
463.7 km
Semi-major
6,840.9 km
B*
3.2571e-5
RAAN
309.2784°
Arg perigee
85.4080°
Mean anomaly
274.7078°
Rev number
10,967

§ Raw data

STARLINK-323511 61529U 24183W   26264.38719883  .00000724  00000+0  32571-4 0  99922 61529  53.1604 309.2784 0001358  85.4080 274.7078 15.34393568109674

JSON: /api/v1/satellites/61529 · /tle

For live sub-satellite position, see the globe view (requires WebGL).

§ Visibility from observer

Set your observer location to see the next 7 days of passes ≥ 10°. The values pass through the URL so the page stays shareable.

No JS? Fill the form by hand. The geolocation button needs JavaScript.